Burlington, WA
on Wednesday, February 27, 2013

Wednesday
Previous Day Next Day
Daily Summary
 ActualAverage (KBLI)Record (KBLI)
Temperature
Mean Temperature °F 42°F  
Max Temperature 48°F 50°F 68°F (1986)
Min Temperature 39°F 34°F 16°F (1955)
Degree Days
Heating Degree Days 22 23  
Month to date heating degree days 656  
Cooling Degree Days 0 0  
Month to date cooling degree days 0  
Year to date cooling degree days 0  
Moisture
Dew Point 41°F   
Average Humidity 93    
Maximum Humidity 100    
Minimum Humidity 71    
Precipitation
Precipitation 1.01 in 0.11 in 1.04 in (1972)
Month to date precipitation 2.92  
Year to date precipitation 7.59  
Wind
Wind Speed 6 mph   
Max Wind Speed 17 mph   
Max Gust Speed 23 mph   
Visibility 9 miles   
Events     

Key: T is trace of precipitation, MM is missing value
Source: NWS Daily Summary
Time(PST)TemperatureDew PointHumidity Pressure Visibility Wind DirectionWind SpeedGust SpeedPrecipitationEvents Conditions
12:15 AM 44.6°F 37.4°F 76% 30.20 in 10.0 miles SSE 12.7 mph - 0.00 in   Overcast
12:35 AM 42.8°F 37.4°F 81% 30.20 in 10.0 miles South 8.1 mph - 0.00 in   Overcast
12:55 AM 42.8°F 41.0°F 93% 30.21 in 4.0 miles South 8.1 mph - 0.00 in   Overcast
1:15 AM 41.0°F 41.0°F 100% 30.23 in 5.0 miles SW 6.9 mph - 0.02 in   Overcast
1:35 AM 41.0°F 41.0°F 100% 30.20 in 5.0 miles SE 17.3 mph 23.0 mph 0.05 in   Overcast
1:55 AM 41.0°F 41.0°F 100% 30.23 in 10.0 miles SSE 5.8 mph - 0.05 in   Overcast
2:15 AM 39.2°F 39.2°F 100% 30.23 in 9.0 miles SE 5.8 mph - 0.00 in   Overcast
2:35 AM 41.0°F 41.0°F 100% 30.23 in 10.0 miles SE 8.1 mph - 0.00 in   Mostly Cloudy
2:55 AM 39.2°F 39.2°F 100% 30.23 in 10.0 miles SE 6.9 mph - 0.01 in   Mostly Cloudy
3:15 AM 39.2°F 39.2°F 100% 30.24 in 10.0 miles SSE 3.5 mph - 0.00 in   Overcast
3:35 AM 39.2°F 39.2°F 100% 30.24 in 10.0 miles Calm Calm - 0.00 in   Overcast
3:55 AM 39.2°F 39.2°F 100% 30.24 in 10.0 miles Calm Calm - 0.00 in   Overcast
4:15 AM 39.2°F 39.2°F 100% 30.25 in 5.0 miles Calm Calm - 0.01 in   Overcast
4:35 AM 39.2°F 39.2°F 100% 30.26 in 7.0 miles Calm Calm - 0.01 in   Overcast
4:55 AM 39.2°F 39.2°F 100% 30.27 in 10.0 miles Calm Calm - 0.01 in   Overcast
5:15 AM 39.2°F 39.2°F 100% 30.28 in 10.0 miles Calm Calm - 0.00 in   Overcast
5:35 AM 39.2°F 39.2°F 100% 30.29 in 10.0 miles ESE 4.6 mph - 0.00 in   Overcast
5:55 AM 39.2°F 39.2°F 100% 30.29 in 10.0 miles Calm Calm - 0.00 in   Overcast
6:15 AM 39.2°F 39.2°F 100% 30.30 in 10.0 miles Calm Calm - 0.00 in   Mostly Cloudy
6:35 AM 39.2°F 39.2°F 100% 30.30 in 10.0 miles Calm Calm - 0.00 in   Overcast
6:55 AM 39.2°F 39.2°F 100% 30.30 in 10.0 miles SE 3.5 mph - 0.00 in   Overcast
7:15 AM 39.2°F 39.2°F 100% 30.31 in 10.0 miles Calm Calm - 0.00 in   Overcast
7:35 AM 39.2°F 39.2°F 100% 30.31 in 10.0 miles NE 4.6 mph - 0.00 in   Overcast
7:55 AM 39.2°F 39.2°F 100% 30.31 in 10.0 miles ENE 5.8 mph - 0.00 in   Overcast
8:15 AM 39.2°F 39.2°F 100% 30.31 in 10.0 miles East 3.5 mph - 0.00 in   Overcast
8:35 AM 41.0°F 41.0°F 100% 30.31 in 10.0 miles East 4.6 mph - 0.00 in   Mostly Cloudy
8:55 AM 42.8°F 42.8°F 100% 30.31 in 10.0 miles East 5.8 mph - 0.00 in   Partly Cloudy
9:15 AM 42.8°F 42.8°F 100% 30.30 in 10.0 miles East 4.6 mph - 0.00 in   Clear
9:35 AM 44.6°F 44.6°F 100% 30.30 in 10.0 miles ESE 5.8 mph - 0.00 in   Clear
9:55 AM 44.6°F 42.8°F 93% 30.30 in 10.0 miles ESE 5.8 mph - 0.00 in   Mostly Cloudy
10:15 AM 44.6°F 42.8°F 93% 30.29 in 10.0 miles SE 4.6 mph - 0.00 in   Overcast
10:35 AM 44.6°F 44.6°F 100% 30.29 in 10.0 miles ENE 5.8 mph - 0.00 in   Overcast
10:55 AM 46.4°F 42.8°F 87% 30.30 in 10.0 miles SE 5.8 mph - 0.00 in   Mostly Cloudy
11:15 AM 46.4°F 41.0°F 81% 30.31 in 10.0 miles SE 3.5 mph - 0.00 in   Mostly Cloudy
11:35 AM 46.4°F 41.0°F 81% 30.31 in 10.0 miles ESE 3.5 mph - 0.00 in   Overcast
11:55 AM 46.4°F 42.8°F 87% 30.31 in 10.0 miles South 5.8 mph - 0.91 in   Overcast
12:15 PM 46.4°F 42.8°F 87% 30.31 in 10.0 miles East 3.5 mph - 0.00 in   Overcast
12:35 PM 48.2°F 42.8°F 82% 30.31 in 10.0 miles East 3.5 mph - 0.00 in   Overcast
12:55 PM 48.2°F 41.0°F 76% 30.29 in 10.0 miles Calm Calm - 0.00 in   Mostly Cloudy
1:15 PM 48.2°F 42.8°F 82% 30.29 in 10.0 miles East 5.8 mph - 0.00 in   Mostly Cloudy
1:35 PM 48.2°F 41.0°F 76% 30.29 in 10.0 miles SSE 6.9 mph - 0.00 in   Overcast
1:55 PM 48.2°F 39.2°F 71% 30.28 in 10.0 miles SSW 4.6 mph - 0.00 in   Mostly Cloudy
2:15 PM 48.2°F 39.2°F 71% 30.29 in 10.0 miles SW 6.9 mph - 0.00 in   Mostly Cloudy
2:35 PM 48.2°F 39.2°F 71% 30.28 in 10.0 miles South 3.5 mph - 0.00 in   Overcast
2:55 PM 48.2°F 39.2°F 71% 30.28 in 10.0 miles SSW 6.9 mph - 0.00 in   Mostly Cloudy
3:15 PM 48.2°F 39.2°F 71% 30.28 in 10.0 miles SSW 3.5 mph - 0.00 in   Partly Cloudy
3:35 PM 48.2°F 39.2°F 71% 30.28 in 10.0 miles Calm Calm - 0.00 in   Mostly Cloudy
3:55 PM 48.2°F 39.2°F 71% 30.28 in 10.0 miles Calm Calm - 0.00 in   Scattered Clouds
4:15 PM 48.2°F 39.2°F 71% 30.27 in 9.0 miles Calm Calm - 0.00 in   Scattered Clouds
4:35 PM 48.2°F 41.0°F 76% 30.27 in 10.0 miles Calm Calm - 0.00 in   Mostly Cloudy
4:55 PM 46.4°F 42.8°F 87% 30.27 in 7.0 miles North 3.5 mph - 0.00 in   Overcast
5:15 PM 44.6°F 44.6°F 100% 30.29 in 3.0 miles NW 5.8 mph - 0.00 in   Overcast
5:35 PM 44.6°F 44.6°F 100% 30.29 in 5.0 miles NNE 3.5 mph - 0.01 in   Overcast
6:15 PM 42.8°F 42.8°F 100% 30.29 in 8.0 miles North 5.8 mph - 0.01 in   Overcast
6:35 PM 42.8°F 42.8°F 100% 30.28 in 10.0 miles North 4.6 mph - 0.01 in   Overcast
6:55 PM 42.8°F 42.8°F 100% 30.30 in 5.0 miles North 3.5 mph - 0.02 in   Overcast
7:15 PM 42.8°F 42.8°F 100% 30.29 in 10.0 miles NE 6.9 mph - 0.00 in   Overcast
7:35 PM 42.8°F 42.8°F 100% 30.30 in 8.0 miles NNE 6.9 mph - 0.00 in   Overcast
7:55 PM 42.8°F 42.8°F 100% 30.30 in 10.0 miles NE 5.8 mph - 0.00 in   Overcast
8:15 PM 42.8°F 42.8°F 100% 30.30 in 10.0 miles ENE 6.9 mph - 0.00 in   Overcast
8:35 PM 42.8°F 42.8°F 100% 30.29 in 10.0 miles ENE 6.9 mph - 0.00 in   Overcast
8:55 PM 42.8°F 42.8°F 100% 30.29 in 10.0 miles ENE 5.8 mph - 0.00 in   Overcast
9:15 PM 42.8°F 42.8°F 100% 30.28 in 10.0 miles NE 4.6 mph - 0.00 in   Overcast
9:35 PM 42.8°F 42.8°F 100% 30.29 in 10.0 miles NE 4.6 mph - 0.00 in   Overcast
9:55 PM 42.8°F 42.8°F 100% 30.30 in 10.0 miles ENE 6.9 mph - 0.00 in   Overcast
10:15 PM 42.8°F 42.8°F 100% 30.30 in 10.0 miles ENE 6.9 mph - 0.00 in   Overcast
10:35 PM 42.8°F 42.8°F 100% 30.30 in 10.0 miles East 5.8 mph - 0.00 in   Overcast
10:55 PM 42.8°F 42.8°F 100% 30.29 in 10.0 miles ENE 6.9 mph - 0.00 in   Overcast
11:15 PM 42.8°F 42.8°F 100% 30.28 in 10.0 miles ENE 8.1 mph - 0.00 in   Overcast
11:35 PM 41.0°F 41.0°F 100% 30.29 in 10.0 miles NE 4.6 mph - 0.00 in   Overcast
11:55 PM 41.0°F 41.0°F 100% 30.28 in 10.0 miles NE 6.9 mph - 0.00 in   Overcast
Moon Phase
Feb. 27 Mar. 04 Mar. 11 Mar. 19 Mar. 27
Sunrise:06:54 AM (PST) Moon Rise:08:35 PM (PST)2/27
Sunset:05:51 PM (PST) Moon Set:07:18 AM (PST)2/27

Copyright © 2014 The Weather Underground, Inc.